Flight Track Log - Related Links

Times and Time Zones

All times are in EDT time to prevent confusion due to time zone crossing. See the SWA1319 flight status page for this flight to view local times or setup timezone preferences in your user account.

Time Position Orientation Groundspeed Altitude Reporting Facility
EDT Latitude Longitude Course Direction KTS MPH feet Rate Location/Type
Mon 02:12:15 PM 33.6028 -86.6975 52° Northeast 210 242 3,000  Level Atlanta Center
Mon 02:13:07 PM 33.6506 -86.7089 349° North 216 249 5,400 2,625 Climbing Atlanta Center
Mon 02:14:07 PM 33.6528 -86.7939 272° West 170 196 7,900 2,650 Climbing Atlanta Center
Mon 02:15:07 PM 33.6444 -86.8858 264° West 215 247 10,700 2,250 Climbing Atlanta Center
Mon 02:16:07 PM 33.6336 -86.9978 263° West 286 329 12,400 2,050 Climbing Atlanta Center
Mon 02:17:07 PM 33.6200 -87.1172 262° West 328 377 14,800 2,400 Climbing Atlanta Center
Mon 02:18:07 PM 33.6086 -87.2439 264° West 365 420 17,200 2,203 Climbing Atlanta Center
Mon 02:19:45 PM 33.5878 -87.4572 263° West 400 460 20,600 1,937 Climbing Memphis Center
Mon 02:20:45 PM 33.5742 -87.5922 263° West 411 473 22,300 1,750 Climbing Memphis Center
Mon 02:21:45 PM 33.5625 -87.7297 264° West 416 479 24,100 1,700 Climbing Memphis Center
Mon 02:22:45 PM 33.5486 -87.8697 263° West 416 479 25,700 1,400 Climbing Memphis Center
Mon 02:23:45 PM 33.5347 -88.0122 263° West 427 491 26,900 1,150 Climbing Memphis Center
Mon 02:24:45 PM 33.5186 -88.1594 263° West 437 503 28,000 600 Climbing Memphis Center
Mon 02:25:45 PM 33.4917 -88.2872 256° West 442 509 28,100 1,100 Climbing Memphis Center
Mon 02:26:45 PM 33.4583 -88.4275 254° West 442 509 30,200 1,750 Climbing Memphis Center
Mon 02:27:45 PM 33.4208 -88.5628 252° West 442 509 31,600 1,250 Climbing Memphis Center
Mon 02:28:45 PM 33.3894 -88.7003 255° West 437 503 32,700 1,200 Climbing Memphis Center
Mon 02:29:45 PM 33.3556 -88.8350 253° West 437 503 34,000 1,050 Climbing Memphis Center
Mon 02:30:45 PM 33.3239 -88.9700 254° West 432 497 34,800 1,000 Climbing Memphis Center
Mon 02:31:45 PM 33.2917 -89.0997 253° West 420 483 36,000 600 Climbing Memphis Center
Mon 02:32:45 PM 33.2556 -89.2319 252° West 415 478 36,000  Level Memphis Center
Mon 02:33:45 PM 33.2253 -89.3589 254° West 415 478 36,000  Level Memphis Center
Mon 02:34:45 PM 33.1886 -89.5008 253° West 415 478 36,000  Level Memphis Center
Mon 02:35:45 PM 33.1583 -89.6253 254° West 409 471 36,000  Level Memphis Center
Mon 02:36:45 PM 33.1275 -89.7519 254° West 404 465 36,000  Level Memphis Center
Mon 02:37:45 PM 33.0947 -89.8811 253° West 404 465 36,000  Level Memphis Center
Mon 02:38:45 PM 33.0617 -90.0078 253° West 404 465 36,000  Level Memphis Center
Mon 02:39:45 PM 33.0267 -90.1317 251° West 404 465 36,000  Level Memphis Center
Mon 02:40:45 PM 32.9975 -90.2458 253° West 404 465 36,000  Level Memphis Center
Mon 02:41:45 PM 32.9642 -90.3722 253° West 404 465 36,000  Level Memphis Center
Mon 02:42:45 PM 32.9328 -90.4983 254° West 404 465 36,000  Level Memphis Center
Mon 02:43:45 PM 32.8972 -90.6244 251° West 404 465 36,000  Level Memphis Center
Mon 02:44:45 PM 32.8633 -90.7531 253° West 404 465 36,000  Level Memphis Center
Mon 02:45:45 PM 32.8294 -90.8814 253° West 404 465 36,000  Level Memphis Center
Mon 02:46:45 PM 32.7933 -91.0097 252° West 404 465 36,000  Level Memphis Center
Mon 02:47:45 PM 32.7592 -91.1378 252° West 404 465 36,000  Level Memphis Center
Mon 02:49:42 PM 32.6919 -91.4058 253° West 395 455 36,000  Level Fort Worth Center
Mon 02:50:42 PM 32.6561 -91.5314 251° West 406 467 36,000  Level Fort Worth Center
Mon 02:51:42 PM 32.6203 -91.6594 252° West 411 473 36,000 -350 Level Fort Worth Center
Mon 02:52:42 PM 32.6033 -91.7914 261° West 406 467 35,300 -1,000 Descending Fort Worth Center
Mon 02:53:42 PM 32.5967 -91.9247 267° West 406 467 34,000 -650 Descending Fort Worth Center
Mon 02:54:42 PM 32.5903 -92.0658 267° West 416 479 34,000  Level Fort Worth Center
Mon 02:55:42 PM 32.5856 -92.2042 268° West 416 479 34,000  Level Fort Worth Center
Mon 02:56:42 PM 32.5758 -92.3228 264° West 429 494 34,000  Level Fort Worth Center
Mon 02:57:42 PM 32.5672 -92.4736 266° West 424 488 34,000  Level Fort Worth Center
Mon 02:58:42 PM 32.5633 -92.5872 268° West 411 473 34,000  Level Fort Worth Center
Mon 02:59:42 PM 32.5558 -92.7208 266° West 411 473 34,000  Level Fort Worth Center
Mon 03:00:42 PM 32.5464 -92.8569 265° West 411 473 34,000  Level Fort Worth Center
Mon 03:01:42 PM 32.5386 -92.9878 266° West 406 467 34,000  Level Fort Worth Center
Mon 03:02:42 PM 32.5286 -93.1236 265° West 411 473 34,000  Level Fort Worth Center
Mon 03:03:42 PM 32.5183 -93.2547 265° West 411 473 34,000  Level Fort Worth Center
Mon 03:04:42 PM 32.5122 -93.3856 267° West 406 467 34,000  Level Fort Worth Center
Mon 03:05:42 PM 32.5039 -93.5189 266° West 406 467 34,000  Level Fort Worth Center
Mon 03:06:42 PM 32.4953 -93.6522 266° West 411 473 34,000  Level Fort Worth Center
Mon 03:07:42 PM 32.4847 -93.7833 265° West 406 467 34,000 -150 Level Fort Worth Center
Mon 03:08:42 PM 32.4694 -93.9119 262° West 406 467 33,700 -600 Descending Fort Worth Center
Mon 03:09:42 PM 32.4375 -94.0436 254° West 411 473 32,800 -900 Descending Fort Worth Center
Mon 03:10:42 PM 32.4075 -94.1728 255° West 416 479 31,900 -950 Descending Fort Worth Center
Mon 03:11:42 PM 32.4008 -94.3206 267° West 416 479 30,900 -1,000 Descending Fort Worth Center
Mon 03:12:42 PM 32.4000 -94.4583 270° West 410 472 29,900 -1,050 Descending Fort Worth Center
Mon 03:13:42 PM 32.3989 -94.5936 269° West 403 464 28,800 -1,050 Descending Fort Worth Center
Mon 03:14:42 PM 32.3975 -94.7242 269° West 403 464 27,800 -1,000 Descending Fort Worth Center
Mon 03:15:42 PM 32.3919 -94.8547 267° West 408 470 26,800 -1,000 Descending Fort Worth Center
Mon 03:16:42 PM 32.3947 -94.9925 271° West 414 476 25,800 -1,050 Descending Fort Worth Center
Mon 03:17:42 PM 32.3931 -95.1228 269° West 414 476 24,700 -900 Descending Fort Worth Center
Mon 03:18:42 PM 32.3911 -95.2533 269° West 404 465 24,000 -350 Descending Fort Worth Center
Mon 03:19:42 PM 32.4119 -95.3808 281° West 399 459 24,000 -550 Level Fort Worth Center
Mon 03:20:42 PM 32.4308 -95.5108 280° West 399 459 22,900 -1,650 Descending Fort Worth Center
Mon 03:21:42 PM 32.4514 -95.6333 281° West 404 465 20,700 -2,150 Descending Fort Worth Center
Mon 03:22:42 PM 32.4697 -95.7586 280° West 392 451 18,600 -2,050 Descending Fort Worth Center
Mon 03:23:42 PM 32.4878 -95.8642 281° West 381 438 16,600 -2,100 Descending Fort Worth Center
Mon 03:24:42 PM 32.5081 -95.9919 281° West 368 423 14,400 -2,050 Descending Fort Worth Center
Mon 03:25:42 PM 32.5239 -96.0928 281° West 363 418 12,500 -2,000 Descending Fort Worth Center
Mon 03:26:42 PM 32.5439 -96.2156 281° West 352 405 10,400 -1,600 Descending Fort Worth Center
Mon 03:27:42 PM 32.5572 -96.3067 280° West 330 380 9,300 -700 Descending Fort Worth Center
Mon 03:28:42 PM 32.6017 -96.4000 299° West 300 345 9,000 -150 Descending Fort Worth Center
Mon 03:29:42 PM 32.6442 -96.4733 305° West 294 338 9,000 -350 Level Fort Worth Center
Mon 03:30:42 PM 32.7031 -96.5567 310° West 301 346 8,300 -850 Descending Fort Worth Center
Mon 03:31:42 PM 32.7600 -96.6231 316° Northwest 295 339 7,300 -1,450 Descending Fort Worth Center
Mon 03:32:42 PM 32.8189 -96.6892 317° Northwest 290 334 5,400 -1,671 Descending Fort Worth Center
Mon 03:33:01 PM 32.8333 -96.7167 302° West 292 336 5,100 -918 Descending Dallas / Fort Worth TRACON
Mon 03:34:07 PM 32.9000 -96.7833 320° Northwest 267 307 4,100 -595 Descending Dallas / Fort Worth TRACON
Mon 03:35:02 PM 32.9500 -96.8167 331° Northwest 208 239 3,900 -730 Descending Dallas / Fort Worth TRACON
Mon 03:36:02 PM 32.9500 -96.8833 270° West 183 211 2,700 -958 Descending Dallas / Fort Worth TRACON
Mon 03:37:01 PM 32.9167 -96.9000 203° Southwest 167 192 2,000 -756 Descending Dallas / Fort Worth TRACON
Mon 03:38:01 PM 32.8833 -96.8833 157° South 128 147 1,200  Descending Dallas / Fort Worth TRACON
Mon 03:39:42 PM 32.8967 -96.7925 80° East 143 165 2,000 475 Climbing Fort Worth Center

Login

Don't have an account? Register now (free) for customized features, flight alerts, and more!